Date,TemperatureHighF,TemperatureAvgF,TemperatureLowF,DewpointHighF,DewpointAvgF,DewpointLowF,HumidityHigh,HumidityAvg,HumidityLow,PressureMaxIn,PressureMinIn,WindSpeedMaxMPH,WindSpeedAvgMPH,GustSpeedMaxMPH,PrecipitationSumIn
2013-1-1,47,39,29,46,34,25,95,83,63,30.33,30.04,18,4,19,0.00
2013-1-2,42,31,22,28,25,19,92,80,56,30.40,30.29,12,2,13,0.00
2013-1-3,47,35,18,32,26,16,98,71,47,30.51,30.37,17,2,17,0.00
2013-1-4,48,41,34,38,34,30,93,77,56,30.54,30.38,14,1,15,0.18
2013-1-5,58,42,29,41,35,26,95,79,45,30.40,30.20,10,1,12,0.00
2013-1-6,57,38,25,32,27,21,92,68,32,30.44,30.31,15,2,15,0.00
2013-1-7,53,36,19,35,28,16,91,73,49,30.36,30.11,14,1,14,0.00
2013-1-8,48,46,44,46,41,34,95,84,70,30.12,29.94,15,-13,15,1.55
2013-1-9,57,53,47,56,51,45,96,95,94,30.10,29.91,25,5,25,1.82
2013-1-10,57,52,43,56,48,41,96,87,73,29.98,29.91,13,1,17,0.03
2013-1-11,74,57,42,60,50,40,94,79,55,29.95,29.74,21,3,23,0.00
2013-1-12,65,53,35,62,46,26,94,79,57,29.99,29.68,22,4,22,0.00
2013-1-13,42,34,28,26,22,18,71,61,47,30.31,29.97,24,4,24,0.00
2013-1-14,43,34,28,27,22,18,78,62,44,30.36,30.21,16,3,16,0.00
2013-1-15,38,33,28,30,25,19,91,72,59,30.28,30.18,16,3,17,0.06
2013-1-16,50,34,20,28,21,16,87,63,29,30.35,30.19,14,1,16,0.01
2013-1-17,61,42,26,36,30,22,88,64,36,30.53,30.30,13,1,14,0.00
2013-1-18,63,42,22,36,30,20,92,68,34,30.53,30.27,14,-9,15,0.00
2013-1-19,66,50,33,45,39,30,91,69,43,30.27,30.12,16,1,17,0.00
2013-1-20,70,46,28,46,36,26,94,73,32,30.22,30.06,12,0,12,0.00
2013-1-21,57,42,30,38,32,26,93,71,43,30.32,30.13,14,2,14,0.00
2013-1-22,69,48,29,49,39,26,90,72,46,30.33,30.16,13,1,18,0.00
2013-1-23,76,60,44,56,51,41,93,74,47,30.28,30.11,16,2,16,0.00
2013-1-24,85,64,47,60,51,41,95,68,33,30.16,29.99,15,1,15,0.00
2013-1-25,50,45,40,44,40,37,91,83,78,30.22,30.02,12,1,14,0.00
2013-1-26,57,48,36,50,43,34,94,84,63,30.23,30.08,13,1,15,0.00
2013-1-27,76,64,51,62,58,50,96,81,55,30.08,29.89,24,-1,27,0.00
2013-1-28,80,74,69,65,64,62,84,70,56,29.95,29.79,22,-27,24,0.00
2013-1-29,77,64,51,65,55,29,90,73,37,29.80,29.48,24,-16,28,0.24
2013-1-30,53,44,26,33,26,20,85,52,28,30.17,29.70,27,5,27,0.00
2013-1-31,70,45,25,33,27,21,88,55,21,30.30,30.11,18,1,20,0.00
2013-2-1,61,45,30,37,30,21,81,58,36,30.40,30.14,14,1,16,0.00
2013-2-2,67,52,33,46,38,29,84,61,31,30.34,30.15,14,2,14,0.00
2013-2-3,69,50,27,40,30,25,91,55,23,30.34,29.98,17,2,20,0.00
2013-2-4,77,62,48,55,48,31,87,62,36,29.99,29.73,13,1,14,0.00
2013-2-5,69,56,43,58,52,40,95,86,66,30.00,29.83,11,1,11,0.00
2013-2-6,73,63,58,60,57,56,95,82,56,29.98,29.80,17,2,18,0.00
2013-2-7,78,64,51,59,53,42,90,68,32,30.13,29.81,24,4,24,0.00
2013-2-8,63,50,39,41,32,23,76,53,23,30.27,30.09,15,2,17,0.00
2013-2-9,62,51,38,61,48,31,95,88,68,30.12,29.71,22,4,26,0.00
2013-2-10,68,56,41,65,42,29,95,66,24,30.01,29.62,23,2,25,0.63
2013-2-11,56,50,44,43,39,34,84,67,48,30.14,29.97,19,4,19,0.01
2013-2-12,54,48,40,48,44,35,94,86,75,30.09,29.86,18,3,19,0.06
2013-2-13,60,44,32,37,33,28,91,69,32,30.17,30.03,18,2,20,0.00
2013-2-14,70,50,31,42,34,28,92,60,24,30.11,29.97,13,1,13,0.00
2013-2-15,52,45,31,38,30,20,69,55,35,30.42,30.07,22,4,22,0.00
2013-2-16,63,42,23,32,27,19,87,61,29,30.45,30.17,11,0,11,0.00
2013-2-17,73,56,32,46,34,27,86,48,22,30.17,29.89,22,5,28,0.00
2013-2-18,78,62,46,55,44,31,77,54,19,30.12,29.77,28,5,28,0.00
2013-2-19,61,48,30,38,29,22,89,50,23,30.31,30.10,18,3,21,0.01
2013-2-20,52,46,43,41,38,32,87,75,46,30.14,29.73,27,7,27,0.14
2013-2-21,68,54,43,51,40,29,95,66,24,29.92,29.57,24,4,25,0.27
2013-2-22,50,38,29,36,27,21,80,65,44,30.16,29.91,14,2,16,0.00
2013-2-23,60,41,24,34,29,21,91,66,37,30.13,29.92,11,1,11,0.00
2013-2-24,70,52,28,48,39,25,90,64,40,29.94,29.56,22,4,23,0.00
2013-2-25,58,49,40,52,39,29,84,68,41,29.77,29.51,28,5,30,0.00
2013-2-26,59,44,31,34,31,26,86,62,36,29.94,29.78,24,4,24,0.00
2013-2-27,56,44,29,33,28,21,90,58,26,30.27,29.88,24,4,24,0.00
2013-2-28,58,43,28,31,27,22,87,56,30,30.34,30.20,19,3,19,0.00
2013-3-1,60,41,23,32,27,20,95,62,30,30.34,30.18,20,2,21,0.00
2013-3-2,58,41,25,33,28,22,88,62,35,30.47,30.25,18,2,18,0.00
2013-3-3,77,56,31,39,32,24,81,46,23,30.25,29.78,25,4,25,0.00
2013-3-4,88,69,55,44,39,27,55,36,17,29.79,29.58,24,2,26,0.00
2013-3-5,62,48,29,43,24,14,66,42,22,30.40,29.79,27,6,30,0.00
2013-3-6,60,41,20,26,21,15,82,50,23,30.49,30.21,13,1,13,0.00
2013-3-7,72,53,32,47,34,23,76,52,23,30.23,30.06,23,3,23,0.00
2013-3-8,62,58,54,58,53,45,92,83,67,30.15,29.94,20,4,20,0.00
2013-3-9,76,64,58,65,60,55,94,85,66,29.95,29.61,26,5,27,0.68
2013-3-10,59,50,35,56,37,30,94,63,43,30.10,29.71,31,6,31,0.02
2013-3-11,63,44,26,32,27,20,84,56,24,30.17,30.00,16,2,18,0.00
2013-3-12,68,52,33,38,33,28,81,50,31,30.31,30.04,19,3,21,0.00
2013-3-13,70,52,30,42,36,27,90,59,35,30.45,30.28,15,2,15,0.00
2013-3-14,79,60,41,48,43,36,85,56,31,30.34,30.15,19,2,20,0.00
2013-3-15,82,67,50,53,48,42,83,54,29,30.17,29.86,21,4,23,0.00
2013-3-16,86,71,58,58,52,44,74,53,36,29.86,29.62,22,6,22,0.00
2013-3-17,73,63,48,60,51,43,86,67,48,29.79,29.65,19,2,19,0.00
2013-3-18,70,60,48,60,49,42,92,68,43,29.98,29.65,21,3,24,0.00
2013-3-19,65,53,35,50,44,32,91,71,55,30.11,29.94,11,3,14,0.07
2013-3-20,67,56,41,44,36,30,82,50,26,30.30,30.03,20,2,20,0.07
2013-3-21,74,61,44,58,47,33,72,59,43,30.04,29.50,33,4,33,0.00
2013-3-22,67,54,46,58,48,42,90,81,72,29.83,29.52,18,3,23,0.00
2013-3-23,57,51,46,51,47,43,94,87,81,29.90,29.65,23,3,26,0.07
2013-3-24,53,44,35,48,29,22,89,58,35,30.19,29.84,27,6,27,0.00
2013-3-25,54,40,22,26,21,17,86,51,27,30.44,30.19,18,3,19,0.00
2013-3-26,62,42,20,29,23,15,88,53,26,30.53,30.28,15,1,15,0.00
2013-3-27,72,56,36,46,36,24,64,49,35,30.31,30.06,26,5,27,0.00
2013-3-28,73,61,49,58,52,44,89,74,57,30.19,30.04,23,3,23,0.00
2013-3-29,77,67,57,58,56,53,92,71,51,30.15,29.97,20,4,20,0.00
2013-3-30,81,69,58,63,60,54,92,73,51,30.09,29.83,17,3,18,0.09
2013-3-31,76,68,55,62,57,50,89,71,51,29.97,29.78,25,3,25,0.00
2013-4-1,81,64,44,56,51,42,94,66,39,30.06,29.88,17,2,17,0.00
2013-4-2,69,63,54,63,58,51,92,84,65,30.00,29.87,27,2,30,0.11
2013-4-3,54,48,45,52,46,43,95,93,89,30.17,29.81,24,4,24,1.60
2013-4-4,48,44,38,43,40,35,95,85,74,30.24,30.13,16,4,19,0.01
2013-4-5,68,50,32,50,41,30,94,74,48,30.29,30.02,14,1,14,0.00
2013-4-6,80,66,54,59,52,46,78,63,47,30.02,29.78,22,5,26,0.00
2013-4-7,76,67,59,64,60,55,90,78,65,29.86,29.68,23,5,27,0.00
2013-4-8,75,70,66,66,63,60,84,77,68,29.73,29.60,25,7,29,0.00
2013-4-9,81,74,70,68,65,63,87,76,61,29.65,29.56,28,6,28,0.00
2013-4-10,74,43,36,67,38,33,92,84,61,30.01,29.65,24,6,28,0.47
2013-4-11,65,49,35,41,36,31,92,65,36,30.02,29.81,10,1,11,0.00
2013-4-12,79,57,35,50,42,33,93,64,26,29.99,29.83,16,1,16,0.00
2013-4-13,77,66,50,51,46,42,80,51,32,29.94,29.75,23,3,23,0.00
2013-4-14,93,73,55,66,58,51,88,63,31,29.76,29.47,19,4,19,0.00
2013-4-15,89,78,67,68,66,61,91,67,46,29.70,29.55,22,4,24,0.00
2013-4-16,86,77,69,69,66,63,87,69,53,29.83,29.70,20,5,22,0.00
2013-4-17,84,77,71,70,68,67,92,75,57,29.83,29.55,27,6,27,0.00
2013-4-18,77,55,42,71,45,34,92,71,47,30.16,29.50,31,7,31,0.79
2013-4-19,64,49,32,36,31,26,89,56,26,30.32,30.15,19,2,20,0.79
2013-4-20,70,55,36,38,34,29,85,49,23,30.19,29.98,24,3,24,0.00
2013-4-21,71,60,48,54,48,37,84,67,53,30.17,30.02,19,3,19,0.00
2013-4-22,83,67,51,61,55,48,93,68,43,30.08,29.77,28,4,28,0.00
2013-4-23,68,54,41,61,47,36,86,77,71,30.20,29.75,20,4,22,0.00
2013-4-24,60,48,35,39,34,28,82,59,39,30.35,30.21,17,4,21,0.00
2013-4-25,72,61,51,47,42,36,63,49,35,30.35,30.12,18,2,18,0.00
2013-4-26,80,68,58,67,59,46,91,74,55,30.13,29.94,23,3,23,0.00
2013-4-27,75,68,52,67,59,49,92,75,52,30.10,29.95,14,2,15,0.00
2013-4-28,85,66,44,66,56,42,94,74,49,30.03,29.81,13,1,18,0.00
2013-4-29,87,75,61,67,61,55,92,65,38,29.87,29.72,19,2,22,0.00
2013-4-30,83,71,57,67,61,54,94,72,52,29.79,29.68,19,2,19,0.00
2013-5-1,84,72,61,67,63,58,94,76,55,29.92,29.73,18,2,18,0.00
2013-5-2,71,49,42,64,42,34,92,77,70,30.38,29.92,30,6,30,0.00
2013-5-3,66,51,34,34,31,29,83,52,25,30.37,30.03,22,3,25,0.00
2013-5-4,76,56,29,37,32,25,92,48,22,30.03,29.89,22,2,22,0.00
2013-5-5,70,55,36,48,42,31,88,62,43,30.17,30.02,18,2,19,0.00
2013-5-6,76,60,40,55,48,37,92,67,41,30.13,29.99,11,0,11,0.00
2013-5-7,86,70,49,56,52,46,92,58,29,30.06,29.87,19,1,19,0.00
2013-5-8,83,72,59,65,59,50,78,63,51,29.96,29.81,22,3,22,0.00
2013-5-9,74,69,63,66,63,59,93,81,61,29.96,29.80,16,2,16,0.27
2013-5-10,80,69,60,66,63,58,95,81,51,30.02,29.82,20,2,23,0.14
2013-5-11,80,67,55,59,54,48,94,66,35,30.15,30.02,21,3,22,0.00
2013-5-12,78,65,52,55,46,39,90,54,29,30.26,30.11,18,2,18,0.00
2013-5-13,88,69,45,53,47,40,87,52,25,30.22,30.08,18,2,18,0.00
2013-5-14,87,76,62,64,57,50,78,54,31,30.14,29.92,20,4,20,0.00
2013-5-15,85,75,64,71,67,60,91,76,60,30.00,29.62,30,5,30,0.39
2013-5-16,86,73,62,73,67,60,94,81,63,29.78,29.67,16,2,16,0.00
2013-5-17,92,81,73,75,72,70,91,76,55,29.79,29.69,19,2,20,0.00
2013-5-18,94,83,71,73,70,65,85,66,46,29.82,29.67,25,5,25,0.00
2013-5-19,92,81,71,72,69,65,85,67,51,29.78,29.60,25,6,25,0.00
2013-5-20,93,81,72,73,70,65,85,68,49,29.75,29.54,38,8,42,0.00
2013-5-21,81,72,55,71,64,52,91,78,60,29.86,29.64,28,5,28,0.11
2013-5-22,88,70,49,61,54,47,94,64,28,29.92,29.80,15,1,15,0.00
2013-5-23,86,78,66,72,70,60,90,78,64,30.04,29.83,22,3,23,0.00
2013-5-24,84,75,66,73,69,60,93,82,64,30.12,29.89,31,2,31,0.83
2013-5-25,79,71,66,73,68,64,94,88,68,30.11,29.98,19,2,19,0.11
2013-5-26,88,78,72,73,70,68,90,76,57,30.04,29.86,21,4,21,0.00
2013-5-27,86,77,70,71,69,66,87,75,60,29.94,29.74,23,6,23,0.00
2013-5-28,85,79,71,71,68,66,84,71,58,29.83,29.64,23,5,23,0.00
2013-5-29,86,77,71,73,70,67,91,78,63,29.74,29.60,36,6,36,0.29
2013-5-30,88,80,74,73,71,69,85,74,60,29.75,29.64,25,6,25,0.00
2013-5-31,92,83,76,74,72,70,84,71,56,29.78,29.63,21,6,25,0.00
2013-6-1,89,81,76,74,71,64,80,74,60,29.92,29.66,19,4,24,0.00
2013-6-2,85,74,62,64,60,53,92,63,38,30.05,29.89,16,2,16,0.08
2013-6-3,92,74,55,64,59,52,93,64,34,29.99,29.79,16,1,16,0.00
2013-6-4,94,82,71,70,66,61,84,61,36,29.88,29.69,25,3,25,0.00
2013-6-5,93,82,72,71,67,64,81,62,40,29.87,29.67,22,3,23,0.00
2013-6-6,80,74,67,70,66,64,93,78,60,29.91,29.74,13,2,19,0.14
2013-6-7,84,73,59,66,59,54,93,64,37,29.99,29.85,13,1,16,0.00
2013-6-8,90,74,55,63,58,52,92,60,35,29.92,29.73,20,2,20,0.00
2013-6-9,87,76,67,70,66,61,93,73,51,29.91,29.79,19,2,22,0.08
2013-6-10,99,81,62,71,64,56,94,61,26,29.94,29.84,17,1,17,0.00
2013-6-11,94,84,73,74,69,61,88,63,45,29.97,29.86,17,2,19,0.00
2013-6-12,96,85,72,73,70,68,89,62,43,30.01,29.86,17,2,18,0.00
2013-6-13,98,86,71,72,69,64,88,59,37,30.01,29.83,15,1,15,0.00
2013-6-14,94,82,67,72,67,61,84,62,42,29.95,29.83,15,1,15,0.00
2013-6-15,91,81,73,74,69,66,83,69,49,29.95,29.83,14,1,14,0.00
2013-6-16,98,84,70,72,69,65,84,61,40,29.97,29.80,15,1,15,0.00
2013-6-17,96,84,69,74,70,65,90,64,44,29.99,29.77,19,2,21,0.03
2013-6-18,88,78,68,74,69,65,93,75,48,29.98,29.81,20,1,20,0.15
2013-6-19,92,75,68,77,69,65,94,83,51,29.96,29.71,28,2,34,2.14
2013-6-20,95,81,68,72,69,66,94,69,43,30.00,29.86,18,2,20,0.00
2013-6-21,96,85,72,73,68,64,89,60,39,30.01,29.88,22,4,22,0.00
2013-6-22,96,85,72,71,66,64,84,56,36,29.97,29.81,22,4,23,0.00
2013-6-23,94,86,74,72,69,66,82,59,41,29.92,29.80,22,5,22,0.00
2013-6-24,96,86,74,72,68,66,86,58,40,29.96,29.81,19,5,21,0.00
2013-6-25,98,88,77,72,68,64,78,55,35,29.92,29.75,26,6,26,0.00
2013-6-26,98,88,76,75,70,64,78,57,42,29.89,29.78,20,4,20,0.00
2013-6-27,103,88,76,72,68,61,80,53,33,29.97,29.80,12,1,13,0.00
2013-6-28,104,88,70,71,65,60,76,49,28,29.91,29.75,15,2,15,0.00
2013-6-29,98,86,67,71,66,61,87,54,33,29.86,29.73,17,2,17,0.00
2013-6-30,93,82,69,64,60,57,75,49,33,29.91,29.78,17,2,17,0.00
2013-7-1,86,76,61,60,56,54,82,52,35,30.01,29.89,19,2,20,0.00
2013-7-2,87,75,57,57,52,48,82,49,29,30.07,29.96,19,2,20,0.00
2013-7-3,90,73,52,57,51,46,81,50,26,30.04,29.89,15,1,17,0.00
2013-7-4,95,80,61,64,57,48,77,49,25,29.96,29.81,16,1,18,0.00
2013-7-5,97,84,65,64,59,56,83,47,27,29.94,29.78,16,2,19,0.00
2013-7-6,97,85,71,68,62,58,77,49,30,29.89,29.77,22,2,22,0.00
2013-7-7,97,86,71,71,66,60,78,54,32,29.94,29.84,14,2,18,0.00
2013-7-8,96,85,75,74,70,64,87,62,41,30.02,29.91,14,2,19,0.00
2013-7-9,100,88,76,72,67,63,81,53,33,30.07,29.91,18,2,18,0.00
2013-7-10,102,90,79,73,68,63,75,51,30,30.01,29.82,13,1,14,0.00
2013-7-11,103,86,75,75,70,63,93,62,34,29.92,29.78,22,1,23,0.61
2013-7-12,101,86,70,75,69,66,94,63,34,29.91,29.80,14,1,18,0.01
2013-7-13,102,88,70,71,67,63,88,53,31,29.93,29.78,16,2,16,0.00
2013-7-14,86,71,66,68,64,60,94,81,46,29.97,29.80,23,3,26,1.12
2013-7-15,72,68,66,71,67,64,95,95,94,30.05,29.94,13,1,13,1.98
2013-7-16,83,75,71,75,72,69,95,89,76,30.14,30.02,16,2,16,0.11
2013-7-17,83,74,71,76,71,68,95,91,75,30.18,30.09,16,1,18,0.71
2013-7-18,92,80,69,78,71,68,96,77,46,30.16,29.96,12,0,12,0.01
2013-7-19,94,82,69,73,70,67,94,69,41,30.01,29.85,12,1,14,0.00
2013-7-20,95,82,70,74,71,68,92,71,44,29.94,29.79,18,0,18,0.00
2013-7-21,96,84,72,74,71,68,91,67,42,29.88,29.77,18,1,18,0.00
2013-7-22,96,86,76,76,73,71,89,67,46,29.92,29.80,16,2,17,0.00
2013-7-23,97,87,78,78,72,67,85,64,43,29.91,29.77,18,2,21,0.00
2013-7-24,98,86,77,76,72,67,85,66,45,29.98,29.81,15,1,15,0.00
2013-7-25,94,84,75,77,73,70,89,71,52,29.99,29.91,10,1,12,0.00
2013-7-26,98,85,77,76,72,70,84,67,45,29.96,29.80,15,1,15,0.00
2013-7-27,88,78,71,70,68,64,89,71,48,29.99,29.86,16,2,16,0.00
2013-7-28,91,78,62,72,68,60,94,73,51,29.95,29.81,18,1,19,0.00
2013-7-29,97,86,77,76,71,65,87,64,38,29.93,29.84,18,3,20,0.00
2013-7-30,99,87,77,75,70,66,82,60,39,30.02,29.88,18,3,18,0.00
2013-7-31,101,88,79,75,70,66,79,56,37,30.02,29.85,13,1,13,0.00
2013-8-1,101,87,72,76,72,68,91,65,39,29.96,29.81,11,0,11,0.00
2013-8-2,101,89,77,72,69,65,74,54,36,29.89,29.80,16,1,17,0.00
2013-8-3,88,81,77,67,66,65,67,60,50,29.94,29.86,0,0,0,0.00
2013-8-4,99,87,76,73,70,65,80,58,38,30.02,29.86,15,2,16,0.00
2013-8-5,101,88,76,71,68,64,76,53,34,29.96,29.78,15,1,15,0.00
2013-8-6,102,90,80,72,69,64,75,51,31,29.86,29.72,16,2,17,0.00
2013-8-7,104,92,80,73,70,64,71,51,32,29.83,29.69,19,2,19,0.00
2013-8-8,101,90,81,73,68,62,75,51,33,29.83,29.69,14,1,16,0.00
2013-8-9,102,87,74,77,68,60,91,56,30,29.92,29.77,14,1,14,0.06
2013-8-10,96,84,70,75,70,64,88,65,46,30.05,29.90,11,1,17,0.00
2013-8-11,100,87,71,74,70,66,84,59,39,30.09,29.96,14,1,15,0.00
2013-8-12,99,87,75,73,70,66,83,58,37,30.07,29.92,12,1,12,0.00
2013-8-13,100,88,79,73,70,66,71,56,38,30.04,29.89,21,2,24,0.00
2013-8-14,91,82,76,75,72,68,87,72,52,30.06,29.94,18,2,18,0.00
2013-8-15,88,80,74,72,71,68,92,75,55,30.06,29.96,15,2,17,0.00
2013-8-16,88,76,67,71,66,61,93,71,43,30.12,29.97,23,2,23,0.30
2013-8-17,90,77,62,65,62,59,90,62,37,30.12,29.97,15,2,15,0.00
2013-8-18,92,77,60,65,61,57,91,62,39,30.12,29.99,14,1,14,0.00
2013-8-19,96,80,62,65,61,57,88,57,32,30.07,29.93,13,1,14,0.00
2013-8-20,96,82,68,66,61,56,80,51,30,30.05,29.96,18,1,18,0.00
2013-8-21,95,82,70,70,66,57,84,60,42,30.10,29.98,12,1,13,0.00
2013-8-22,98,86,74,73,68,65,83,58,38,30.11,29.93,13,1,13,0.00
2013-8-23,100,86,73,74,68,64,83,57,34,30.04,29.91,18,1,18,0.00
2013-8-24,98,85,70,70,67,63,81,57,37,30.07,29.95,20,1,20,0.00
2013-8-25,97,85,72,71,68,65,83,58,38,30.14,30.04,23,2,23,0.00
2013-8-26,95,83,72,72,68,65,83,62,40,30.17,30.04,17,3,18,0.00
2013-8-27,89,78,72,73,69,67,88,76,52,30.14,30.04,24,2,24,0.01
2013-8-28,97,82,68,72,66,62,92,62,34,30.12,30.00,14,1,14,0.01
2013-8-29,101,85,70,71,65,61,80,55,32,30.10,29.96,12,1,12,0.00
2013-8-30,104,86,66,68,63,60,82,50,26,30.03,29.87,15,1,15,0.00
2013-8-31,104,88,69,68,64,60,74,47,29,29.93,29.80,18,0,18,0.00
2013-9-1,104,90,76,70,67,63,71,49,30,29.91,29.78,15,1,15,0.00
2013-9-2,92,78,72,76,72,67,93,82,54,30.04,29.86,17,0,17,0.93
2013-9-3,98,83,71,74,69,63,93,67,36,30.02,29.90,10,1,11,0.01
2013-9-4,99,84,67,72,67,64,91,61,34,30.06,29.94,14,1,14,0.00
2013-9-5,98,86,72,73,69,64,86,60,36,30.11,29.99,22,1,22,0.01
2013-9-6,98,84,70,73,67,63,90,61,34,30.11,29.96,11,1,11,0.00
2013-9-7,98,84,71,72,67,63,86,59,33,30.05,29.91,17,1,17,0.00
2013-9-8,94,81,66,72,67,63,92,65,38,30.01,29.87,17,1,18,0.00
2013-9-9,94,80,67,71,67,63,90,66,41,30.02,29.91,25,2,25,0.00
2013-9-10,91,78,70,75,70,67,93,78,48,30.10,30.00,18,1,18,0.07
2013-9-11,94,79,65,73,67,63,94,69,38,30.14,30.00,15,1,15,0.00
2013-9-12,95,80,65,70,66,61,88,66,39,30.09,29.94,17,1,17,0.00
2013-9-13,96,83,68,70,67,64,91,62,36,29.99,29.83,14,1,14,0.00
2013-9-14,94,84,74,70,68,64,80,60,43,29.96,29.86,18,3,18,0.00
2013-9-15,94,83,70,71,67,63,83,60,41,30.04,29.94,16,1,16,0.00
2013-9-16,94,83,71,71,65,61,82,58,38,30.10,29.97,16,1,16,0.00
2013-9-17,92,81,71,70,66,61,76,61,44,30.09,29.95,11,1,14,0.00
2013-9-18,96,84,71,72,66,62,84,58,35,30.03,29.88,18,1,18,0.00
2013-9-19,89,80,70,73,69,64,93,72,53,30.01,29.87,17,1,17,0.75
2013-9-20,73,71,69,70,69,67,94,93,91,29.96,29.86,18,2,18,1.81
2013-9-21,82,69,55,67,56,50,92,68,35,30.02,29.89,15,2,15,1.81
2013-9-22,82,65,49,60,52,47,94,69,34,29.96,29.81,13,1,13,0.00
2013-9-23,87,68,51,60,54,48,93,66,33,29.88,29.75,18,1,18,0.00
2013-9-24,92,73,57,65,59,54,92,65,34,29.96,29.84,15,0,15,0.00
2013-9-25,94,74,54,64,59,51,92,63,32,29.92,29.78,14,0,14,0.00
2013-9-26,92,78,64,62,58,54,82,52,34,29.89,29.81,19,2,21,0.00
2013-9-27,88,79,66,74,70,57,87,74,60,29.94,29.82,17,2,17,0.00
2013-9-28,82,75,65,76,70,60,91,84,77,30.08,29.86,16,3,22,0.31
2013-9-29,79,68,56,61,56,50,88,67,38,30.09,29.94,9,1,12,0.00
2013-9-30,86,68,49,63,54,47,93,67,33,29.96,29.82,10,0,10,0.00
2013-10-1,87,72,58,72,63,54,90,75,51,29.94,29.84,14,1,16,0.00
2013-10-2,88,78,68,73,70,64,91,78,57,29.99,29.86,17,2,17,0.00
2013-10-3,91,80,72,73,70,67,92,73,49,29.94,29.81,19,3,20,0.00
2013-10-4,89,79,70,71,69,67,91,73,52,29.93,29.82,19,2,19,0.00
2013-10-5,78,64,50,70,56,41,92,76,50,30.14,29.87,19,2,19,0.13
2013-10-6,76,58,42,54,43,37,94,65,26,30.17,30.06,19,2,19,0.02
2013-10-7,82,60,40,52,44,38,92,62,28,30.17,30.06,10,0,10,0.00
2013-10-8,84,63,41,52,46,38,92,61,30,30.11,29.98,14,1,14,0.00
2013-10-9,83,67,51,56,52,46,84,60,36,30.07,29.96,15,1,15,0.00
2013-10-10,84,70,54,66,59,50,91,70,50,30.05,29.87,18,2,18,0.00
2013-10-11,86,76,69,72,68,61,88,76,61,29.94,29.82,18,2,18,0.00
2013-10-12,91,79,70,75,70,66,92,77,47,30.07,29.88,16,1,16,0.00
2013-10-13,79,72,68,68,66,65,91,82,65,30.20,30.06,16,2,16,0.05
2013-10-14,79,72,68,72,69,66,94,90,77,30.14,29.91,15,2,15,1.41
2013-10-15,74,64,51,72,62,50,93,91,89,30.11,29.90,20,2,20,1.41
2013-10-16,64,56,50,52,49,47,93,78,58,30.14,30.04,17,2,17,0.34
2013-10-17,70,55,40,50,45,38,93,72,39,30.15,29.99,9,0,9,0.00
2013-10-18,68,56,46,59,51,44,93,83,67,30.15,29.91,22,1,22,0.01
2013-10-19,64,50,40,45,40,36,92,72,41,30.25,30.09,19,2,19,0.00
2013-10-20,73,54,34,52,43,32,93,71,45,30.09,29.88,15,2,20,0.00
2013-10-21,71,60,51,60,52,47,92,76,63,30.14,29.90,17,1,17,0.00
2013-10-22,77,56,38,50,44,35,97,68,31,30.20,30.05,11,0,11,0.00
2013-10-23,85,62,43,52,46,40,90,60,27,30.15,30.05,12,0,12,0.00
2013-10-24,82,64,50,54,48,44,80,59,30,30.27,30.09,9,0,9,0.00
2013-10-25,71,60,48,56,50,42,85,73,57,30.38,30.23,14,1,14,0.00
2013-10-26,77,66,57,64,59,52,92,79,64,30.23,30.01,20,2,20,0.22
2013-10-27,68,61,55,61,58,52,94,88,72,30.15,30.02,8,0,8,0.01
2013-10-28,76,65,53,68,61,50,94,88,72,30.10,29.99,17,1,17,0.00
2013-10-29,77,72,68,71,68,65,91,85,78,30.07,29.98,17,3,17,0.00
2013-10-30,76,72,67,73,69,65,94,91,83,30.02,29.80,19,2,19,0.04
2013-10-31,74,66,45,68,53,40,95,69,34,29.90,29.72,20,2,20,0.00
2013-11-1,76,58,40,54,43,38,93,64,31,30.13,29.83,18,1,18,0.00
2013-11-2,68,54,38,44,39,34,86,61,32,30.32,30.12,18,1,18,0.00
2013-11-3,68,51,32,47,39,30,92,66,40,30.23,29.95,20,2,20,0.00
2013-11-4,61,58,54,59,54,48,94,89,63,30.07,29.97,10,1,11,0.10
2013-11-5,68,65,60,66,63,58,94,93,90,30.03,29.91,11,1,11,0.08
2013-11-6,68,54,39,66,47,34,93,78,47,30.38,29.96,23,3,23,0.42
2013-11-7,63,46,31,45,37,28,93,75,41,30.51,30.38,10,0,11,0.00
2013-11-8,65,50,35,50,39,33,93,69,35,30.40,30.12,18,2,18,0.00
2013-11-9,68,60,54,56,50,42,88,71,59,30.20,30.09,21,2,21,0.00
2013-11-10,66,55,46,57,50,44,93,86,70,30.33,30.20,8,0,8,0.00
2013-11-11,73,55,40,58,48,37,93,80,55,30.29,30.16,8,0,9,0.00
2013-11-12,58,46,34,55,35,21,92,67,35,30.68,30.29,20,4,22,0.01
2013-11-13,53,36,22,28,24,18,87,65,37,30.68,30.38,10,0,10,0.00
2013-11-14,59,45,25,44,32,22,92,64,33,30.38,30.01,15,1,15,0.00
2013-11-15,76,58,40,57,50,38,92,75,47,30.01,29.83,12,1,12,0.00
2013-11-16,79,69,60,67,62,56,89,77,57,29.87,29.69,22,3,22,0.00
2013-11-17,88,71,50,68,56,44,90,64,24,30.01,29.72,19,1,19,0.00
2013-11-18,72,61,52,44,38,35,61,44,30,30.18,30.01,18,2,18,0.00
2013-11-19,69,59,52,44,42,37,67,54,40,30.18,30.00,17,1,17,0.00
2013-11-20,70,60,50,58,51,41,86,72,63,30.02,29.88,18,2,18,0.00
2013-11-21,80,65,40,70,60,36,93,85,68,30.25,29.93,23,1,23,0.00
2013-11-22,40,33,31,37,30,29,92,89,86,30.46,30.25,21,4,21,0.18
2013-11-23,39,35,32,35,32,27,92,88,74,30.55,30.44,14,3,15,0.22
2013-11-24,35,33,31,29,27,23,86,77,67,30.56,30.32,18,3,18,0.03
2013-11-25,36,33,31,34,31,27,92,91,83,30.34,30.14,11,1,11,0.67
2013-11-26,51,40,34,36,31,27,91,72,44,30.39,30.17,27,4,27,0.00
2013-11-27,47,33,23,27,21,18,88,65,33,30.49,30.34,15,1,15,0.00
2013-11-28,56,37,22,32,25,19,91,67,30,30.44,30.32,12,0,12,0.00
2013-11-29,59,40,21,42,33,18,91,76,45,30.50,30.33,12,1,12,0.00
2013-11-30,67,51,37,53,46,34,93,83,62,30.35,30.14,18,1,18,0.00
2013-12-1,66,58,49,58,53,46,92,86,73,30.16,29.91,12,0,12,0.00
2013-12-2,72,51,37,53,41,34,96,74,34,29.92,29.68,12,0,12,0.00
2013-12-3,83,55,32,52,38,30,92,62,22,29.69,29.54,19,0,19,0.00
2013-12-4,85,63,49,62,48,38,81,61,32,29.90,29.61,19,1,19,0.00
2013-12-5,50,33,26,38,24,17,90,69,52,30.19,29.88,23,4,23,0.00
2013-12-6,30,25,22,27,21,17,90,86,79,30.51,30.12,17,1,17,0.01
2013-12-7,24,21,17,18,15,11,82,77,72,30.53,30.27,13,2,13,0.00
2013-12-8,41,29,23,31,24,18,91,82,66,30.27,30.02,9,0,10,0.46
2013-12-9,33,30,27,30,26,19,93,85,73,30.43,30.11,17,3,17,0.00
2013-12-10,41,26,13,22,18,10,88,72,42,30.52,30.33,12,1,12,0.15
2013-12-11,50,32,19,31,24,16,90,74,46,30.59,30.30,13,1,13,0.32
2013-12-12,48,34,19,34,27,16,90,78,55,30.60,30.27,6,0,7,0.06
2013-12-13,50,44,36,45,38,31,92,79,71,30.27,29.81,14,1,15,0.00
2013-12-14,46,40,25,42,34,22,92,81,59,30.35,29.80,23,3,23,0.01
2013-12-15,62,39,21,36,28,19,91,70,32,30.36,30.23,9,0,12,0.00
2013-12-16,68,45,26,39,32,23,90,66,31,30.25,30.13,11,1,11,0.00
2013-12-17,73,46,26,41,34,24,91,68,29,30.31,30.19,9,0,10,0.00
2013-12-18,70,50,29,50,41,26,92,72,45,30.27,29.99,17,2,17,0.00
2013-12-19,74,63,55,59,55,49,87,76,58,29.99,29.76,26,5,26,0.00
2013-12-20,67,53,33,62,49,31,92,87,72,29.86,29.75,16,3,16,0.00
2013-12-21,62,44,33,56,40,31,94,86,52,29.84,29.58,13,1,14,2.22
2013-12-22,43,36,26,39,30,22,91,76,58,30.39,29.76,20,3,20,0.00
2013-12-23,50,32,19,30,24,16,92,77,44,30.53,30.38,7,0,8,0.00
2013-12-24,56,37,20,36,28,17,91,71,44,30.53,30.23,19,2,19,0.00
2013-12-25,58,42,30,44,34,27,89,72,47,30.43,30.23,15,2,15,0.00
2013-12-26,53,36,23,36,28,21,91,75,42,30.45,30.32,9,0,9,0.00
2013-12-27,56,38,22,38,30,19,91,76,45,30.45,30.32,10,0,10,0.00
2013-12-28,63,45,28,44,37,26,92,75,47,30.32,29.97,13,1,13,0.00
2013-12-29,49,36,29,47,33,23,92,88,79,30.32,29.94,22,3,22,0.00
2013-12-30,46,32,24,26,22,19,87,69,44,30.41,30.26,15,1,15,0.00
2013-12-31,56,36,19,32,26,16,98,69,39,30.43,30.20,11,1,11,0.00
2014-1-1,72,50,30,48,37,25,86,64,42,30.25,29.88,23,3,23,0.00
2014-1-2,44,31,19,26,20,15,84,64,40,30.51,30.24,21,4,22,0.00